Thedford, NE

12:16 PM CDT on April 30, 2017 (GMT -0500)
Thedford

Weather History for KTIF - October, 2013

Change the Weather History Date:

Saturday, October 19, 2013

  Actual Average (KANW) Record (KANW)
Temperature  
Mean Temperature 50 °F -  
Max Temperature 66 °F 58 °F 89 °F (2003)
Min Temperature 34 °F 35 °F 21 °F (2002)
Degree Days  
Heating Degree Days 16    
Moisture  
Dew Point 29 °F    
Average Humidity 50    
Maximum Humidity 77    
Minimum Humidity 24    
Precipitation  
Precipitation 0.00 in - - ()
Sea Level Pressure  
Sea Level Pressure 29.89 in    
Wind  
Wind Speed 9 mph (West)    
Max Wind Speed 18 mph    
Max Gust Speed 26 mph    
Visibility 10 miles    
Events      
Averages and records for this station are not official NWS values.
T = Trace of Precipitation, MM = Missing Value Source: NWS Daily Summary

Daily Weather History Graph

Daily Weather History Graph

Search for Another Location

Airport or City:

Trip Planner

Search our weather history database for the weather conditions in past years. The results will help you decide how hot, cold, wet, or windy it might be!

Date:

Astronomy

Oct. 19, 2013 Rise Set
Actual Time 7:59 AM CDT 6:54 PM CDT
Civil Twilight 7:31 AM CDT 7:22 PM CDT
Nautical Twilight 6:58 AM CDT 7:54 PM CDT
Astronomical Twilight 6:26 AM CDT 8:26 PM CDT
Moon 7:21 PM CDT (10/19) 8:40 AM CDT (10/19)
Length of Visible Light 11h 50m
Length of Day
10h 54m
Waxing Gibbous, 99% of the Moon is Illuminated
Oct 19
Waxing Gibbous
Oct 26
Last Quarter
Nov 3
New
Nov 9
First Quarter
Nov 17
Full

Hourly Weather History & Observations

Time (CDT) Temp. Windchill Dew Point Humidity Pressure Visibility Wind Dir Wind Speed Gust Speed Precip Events Conditions
12:15 AM 37.0 °F 31.0 °F 29.3 °F 74% 30.02 in 10.0 mi West 8.1 mph - N/A   Clear
12:35 AM 36.9 °F 31.4 °F 29.3 °F 74% 30.02 in 10.0 mi West 6.9 mph - N/A   Clear
12:55 AM 37.2 °F 31.9 °F 29.3 °F 73% 30.01 in 10.0 mi West 6.9 mph - N/A   Scattered Clouds
1:15 AM 37.0 °F 31.6 °F 28.9 °F 73% 30.00 in 10.0 mi West 6.9 mph - N/A   Mostly Cloudy
1:35 AM 35.8 °F 29.4 °F 28.4 °F 75% 30.00 in 10.0 mi West 8.1 mph - N/A   Scattered Clouds
1:55 AM 35.1 °F 29.3 °F 28.2 °F 76% 29.99 in 10.0 mi West 6.9 mph - N/A   Clear
2:15 AM 36.5 °F 29.7 °F 28.2 °F 72% 29.99 in 10.0 mi West 9.2 mph - N/A   Scattered Clouds
2:35 AM 36.0 °F 29.6 °F 28.2 °F 73% 29.98 in 10.0 mi West 8.1 mph - N/A   Clear
2:55 AM 35.8 °F 29.4 °F 27.9 °F 73% 29.98 in 10.0 mi West 8.1 mph - N/A   Clear
3:15 AM 35.2 °F 28.1 °F 28.2 °F 76% 29.97 in 10.0 mi West 9.2 mph - N/A   Clear
3:35 AM 35.8 °F 30.1 °F 28.4 °F 75% 29.96 in 10.0 mi West 6.9 mph - N/A   Clear
3:55 AM 35.4 °F 29.7 °F 28.4 °F 76% 29.96 in 10.0 mi WSW 6.9 mph - N/A   Clear
4:15 AM 34.7 °F 29.6 °F 28.0 °F 77% 29.94 in 10.0 mi WSW 5.8 mph - N/A   Clear
4:35 AM 35.2 °F 28.8 °F 28.4 °F 76% 29.93 in 10.0 mi WSW 8.1 mph - N/A   Scattered Clouds
4:55 AM 36.9 °F 30.7 °F 28.4 °F 71% 29.93 in 10.0 mi West 8.1 mph - N/A   Mostly Cloudy
5:15 AM 38.5 °F 32.1 °F 28.2 °F 67% 29.92 in 10.0 mi West 9.2 mph - N/A   Mostly Cloudy
5:35 AM 38.3 °F 30.9 °F 28.2 °F 67% 29.91 in 10.0 mi West 11.5 mph 16.1 mph N/A   Mostly Cloudy
5:55 AM 39.2 °F 32.0 °F 28.0 °F 64% 29.91 in 10.0 mi West 11.5 mph - N/A   Overcast
6:15 AM 39.2 °F 33.6 °F 27.9 °F 64% 29.91 in 10.0 mi West 8.1 mph - N/A   Overcast
6:35 AM 39.4 °F 32.7 °F 27.9 °F 63% 29.90 in 10.0 mi West 10.4 mph - N/A   Overcast
6:55 AM 40.1 °F 33.6 °F 27.9 °F 62% 29.90 in 10.0 mi West 10.4 mph 16.1 mph N/A   Overcast
7:15 AM 40.1 °F 34.1 °F 28.0 °F 62% 29.90 in 10.0 mi West 9.2 mph - N/A   Overcast
7:35 AM 40.3 °F 34.4 °F 28.2 °F 62% 29.90 in 10.0 mi West 9.2 mph - N/A   Scattered Clouds
7:55 AM 41.0 °F 35.2 °F 28.4 °F 61% 29.89 in 10.0 mi West 9.2 mph - N/A   Mostly Cloudy
8:15 AM 41.0 °F 34.7 °F 28.4 °F 61% 29.89 in 10.0 mi West 10.4 mph - N/A   Overcast
8:35 AM 41.4 °F 35.7 °F 28.4 °F 60% 29.90 in 10.0 mi West 9.2 mph - N/A   Overcast
8:55 AM 42.4 °F 36.5 °F 28.8 °F 58% 29.90 in 10.0 mi West 10.4 mph - N/A   Mostly Cloudy
9:15 AM 44.1 °F 38.6 °F 28.9 °F 55% 29.91 in 10.0 mi West 10.4 mph - N/A   Overcast
9:35 AM 45.3 °F 39.7 °F 29.3 °F 54% 29.91 in 10.0 mi West 11.5 mph - N/A   Overcast
9:55 AM 46.8 °F - 29.5 °F 51% 29.91 in 10.0 mi WNW 13.8 mph 18.4 mph N/A   Overcast
10:15 AM 48.2 °F - 29.5 °F 48% 29.91 in 10.0 mi WNW 12.7 mph 17.3 mph N/A   Mostly Cloudy
10:35 AM 52.0 °F - 29.5 °F 42% 29.91 in 10.0 mi West 12.7 mph 17.3 mph N/A   Clear
10:55 AM 53.6 °F - 29.1 °F 39% 29.92 in 10.0 mi WNW 13.8 mph 19.6 mph N/A   Clear
11:15 AM 55.4 °F - 29.3 °F 37% 29.92 in 10.0 mi NW 16.1 mph 20.7 mph N/A   Clear
11:35 AM 56.5 °F - 28.8 °F 35% 29.91 in 10.0 mi WNW 13.8 mph 19.6 mph N/A   Clear
11:55 AM 58.3 °F - 29.1 °F 33% 29.91 in 10.0 mi WNW 11.5 mph 18.4 mph N/A   Clear
1:55 PM 62.8 °F - 29.1 °F 28% 29.88 in 10.0 mi WNW 18.4 mph 24.2 mph N/A   Clear
2:15 PM 63.5 °F - 29.3 °F 28% 29.87 in 10.0 mi NW 13.8 mph 19.6 mph N/A   Clear
2:35 PM 63.5 °F - 28.9 °F 27% 29.86 in 10.0 mi WNW 13.8 mph 24.2 mph N/A   Clear
2:55 PM 64.0 °F - 28.9 °F 27% 29.86 in 10.0 mi NW 12.7 mph 26.5 mph N/A   Scattered Clouds
3:15 PM 64.6 °F - 28.6 °F 26% 29.85 in 10.0 mi WNW 15.0 mph 18.4 mph N/A   Scattered Clouds
3:35 PM 65.5 °F - 28.8 °F 25% 29.85 in 10.0 mi NW 15.0 mph 25.3 mph N/A   Clear
3:55 PM 65.1 °F - 28.2 °F 25% 29.85 in 10.0 mi NW 13.8 mph 20.7 mph N/A   Clear
4:15 PM 65.5 °F - 28.2 °F 25% 29.84 in 10.0 mi WNW 10.4 mph 20.7 mph N/A   Clear
4:35 PM 65.8 °F - 27.5 °F 24% 29.84 in 10.0 mi NW 13.8 mph 21.9 mph N/A   Clear
4:55 PM 65.7 °F - 27.9 °F 24% 29.83 in 10.0 mi WNW 9.2 mph 13.8 mph N/A   Clear
5:15 PM 65.3 °F - 27.0 °F 24% 29.83 in 10.0 mi NW 16.1 mph 20.7 mph N/A   Scattered Clouds
5:35 PM 64.4 °F - 26.8 °F 24% 29.83 in 10.0 mi NW 12.7 mph 17.3 mph N/A   Clear
5:55 PM 64.6 °F - 26.8 °F 24% 29.82 in 10.0 mi WNW 12.7 mph 18.4 mph N/A   Clear
6:15 PM 63.3 °F - 26.4 °F 25% 29.82 in 10.0 mi WNW 13.8 mph 19.6 mph N/A   Clear
6:35 PM 61.3 °F - 26.6 °F 27% 29.82 in 10.0 mi WNW 8.1 mph - N/A   Clear
6:55 PM 56.8 °F - 27.1 °F 32% 29.82 in 10.0 mi WNW 3.5 mph - N/A   Scattered Clouds
7:15 PM 53.6 °F - 27.9 °F 37% 29.82 in 10.0 mi West 4.6 mph - N/A   Clear
7:35 PM 52.3 °F - 28.2 °F 39% 29.82 in 10.0 mi West 3.5 mph - N/A   Scattered Clouds
7:55 PM 50.2 °F - 29.3 °F 45% 29.83 in 10.0 mi West 3.5 mph - N/A   Scattered Clouds
8:15 PM 48.2 °F - 30.2 °F 50% 29.83 in 10.0 mi WSW 5.8 mph - N/A   Clear
8:35 PM 50.0 °F - 30.4 °F 47% 29.83 in 10.0 mi WSW 4.6 mph - N/A   Clear
8:55 PM 50.5 °F - 31.1 °F 47% 29.83 in 10.0 mi West 4.6 mph - N/A   Clear
9:15 PM 51.8 °F - 30.7 °F 45% 29.83 in 10.0 mi West 5.8 mph - N/A   Clear
9:35 PM 51.8 °F - 30.6 °F 44% 29.82 in 10.0 mi West 4.6 mph - N/A   Mostly Cloudy
9:55 PM 51.8 °F - 31.1 °F 45% 29.82 in 10.0 mi West 3.5 mph - N/A   Overcast
10:15 PM 50.7 °F - 31.8 °F 48% 29.82 in 10.0 mi West 4.6 mph - N/A   Mostly Cloudy
10:35 PM 50.9 °F - 31.6 °F 48% 29.81 in 10.0 mi West 3.5 mph - N/A   Scattered Clouds
10:55 PM 50.4 °F - 31.6 °F 49% 29.81 in 10.0 mi Calm Calm - N/A   Clear
11:15 PM 48.9 °F - 32.0 °F 52% 29.81 in 10.0 mi Calm Calm - N/A   Clear
11:35 PM 48.0 °F - 32.0 °F 54% 29.81 in 10.0 mi West 6.9 mph - N/A   Clear
11:55 PM 48.4 °F - 32.2 °F 54% 29.81 in 10.0 mi West 5.8 mph - N/A   Clear